Peru, IN

2:33 AM EDT on April 30, 2017 (GMT -0400)
Grissom Air Reserve Base

Weather History for KGUS - September, 2013

Change the Weather History Date:

Monday, September 2, 2013

  Actual Average Record
Temperature  
Mean Temperature 72 °F -  
Max Temperature 81 °F 78 °F 94 °F (2011)
Min Temperature 61 °F 59 °F 55 °F (2001)
Cooling Degree Days 8    
Growing Degree Days 22 (Base 50)    
Moisture  
Dew Point 66 °F    
Average Humidity 88    
Maximum Humidity 100    
Minimum Humidity 47    
Precipitation  
Precipitation 0.00 in - - ()
Sea Level Pressure  
Sea Level Pressure 29.85 in    
Wind  
Wind Speed 6 mph (NW)    
Max Wind Speed 14 mph    
Max Gust Speed 20 mph    
Visibility 8 miles    
Events      
Averages and records for this station are not official NWS values.
T = Trace of Precipitation, MM = Missing Value Source: NWS Daily Summary

Daily Weather History Graph

Daily Weather History Graph

Search for Another Location

Airport or City:

Trip Planner

Search our weather history database for the weather conditions in past years. The results will help you decide how hot, cold, wet, or windy it might be!

Date:

Astronomy

Sep. 02, 2013 Rise Set
Actual Time 7:12 AM EDT 8:14 PM EDT
Civil Twilight 6:44 AM EDT 8:42 PM EDT
Nautical Twilight 6:11 AM EDT 9:15 PM EDT
Astronomical Twilight 5:36 AM EDT 9:50 PM EDT
Moon 4:28 AM EDT (9/2) 6:28 PM EDT (9/2)
Length of Visible Light 13h 57m
Length of Day
13h 01m
Waning Crescent, 8% of the Moon is Illuminated
Sep 2
Waning Crescent
Sep 5
New
Sep 12
First Quarter
Sep 19
Full
Sep 26
Last Quarter

Hourly Weather History & Observations

Time (EDT) Temp. Heat Index Dew Point Humidity Pressure Visibility Wind Dir Wind Speed Gust Speed Precip Events Conditions
12:58 AM 67.3 °F - 67.3 °F 100% 29.81 in 9.0 mi SW 4.6 mph - N/A   Clear
1:58 AM 68.2 °F - 68.0 °F 99% 29.78 in 8.0 mi SW 6.9 mph - N/A   Clear
2:58 AM 68.0 °F - 68.0 °F 100% 29.79 in 9.0 mi WSW 3.5 mph - N/A   Mostly Cloudy
3:31 AM 68.0 °F - 68.0 °F 100% 29.80 in 9.0 mi NNW 5.8 mph - N/A   Mostly Cloudy
3:36 AM 68.0 °F - 68.0 °F 100% 29.80 in 9.0 mi North 3.5 mph - N/A   Mostly Cloudy
3:56 AM 68.0 °F - 68.0 °F 100% 29.79 in 8.0 mi SW 4.6 mph - N/A   Mostly Cloudy
3:58 AM 68.0 °F - 68.0 °F 100% 29.79 in 8.0 mi SSW 5.8 mph - N/A   Scattered Clouds
4:18 AM 66.2 °F - 66.2 °F 100% 29.79 in 5.0 mi SSW 4.6 mph - N/A   Clear
4:23 AM 66.2 °F - 66.2 °F 100% 29.79 in 4.0 mi SSW 4.6 mph - N/A   Clear
4:53 AM 66.2 °F - 66.2 °F 100% 29.79 in 4.0 mi SSW 5.8 mph - N/A   Clear
4:58 AM 66.2 °F - 66.2 °F 100% 29.79 in 4.0 mi SW 4.6 mph - N/A   Clear
5:23 AM 66.2 °F - 66.2 °F 100% 29.79 in 4.0 mi WSW 5.8 mph - N/A   Clear
5:33 AM 66.2 °F - 66.2 °F 100% 29.80 in 5.0 mi West 5.8 mph - N/A   Clear
5:38 AM 66.2 °F - 66.2 °F 100% 29.80 in 5.0 mi West 4.6 mph - N/A   Clear
5:43 AM 66.2 °F - 66.2 °F 100% 29.80 in 5.0 mi West 2.3 mph - N/A   Clear
5:53 AM 66.2 °F - 66.2 °F 100% 29.80 in 4.0 mi West 4.6 mph - N/A   Partly Cloudy
5:58 AM 66.2 °F - 66.2 °F 100% 29.81 in 5.0 mi West 3.5 mph - N/A   Scattered Clouds
6:03 AM 66.2 °F - 66.2 °F 100% 29.81 in 5.0 mi West 3.5 mph - N/A   Mostly Cloudy
6:08 AM 66.2 °F - 66.2 °F 100% 29.81 in 6.0 mi WNW 3.5 mph - N/A   Mostly Cloudy
6:33 AM 68.0 °F - 68.0 °F 100% 29.82 in 7.0 mi WNW 4.6 mph - N/A   Overcast
6:50 AM 68.0 °F - 68.0 °F 100% 29.82 in 8.0 mi NW 6.9 mph - N/A   Overcast
6:58 AM 68.7 °F - 68.7 °F 100% 29.82 in 9.0 mi NW 5.8 mph - N/A   Overcast
7:18 AM 69.8 °F - 69.8 °F 100% 29.83 in 8.0 mi NW 3.5 mph - N/A   Overcast
7:33 AM 69.8 °F - 69.8 °F 100% 29.83 in 10.0 mi NW 2.3 mph - N/A   Overcast
7:38 AM 69.8 °F - 69.8 °F 100% 29.83 in 10.0 mi NW 3.5 mph - N/A   Overcast
7:58 AM 69.8 °F - 69.8 °F 100% 29.84 in 10.0 mi NW 5.8 mph - N/A   Overcast
8:58 AM 71.6 °F - 71.6 °F 100% 29.86 in 10.0 mi NNW 5.8 mph - N/A   Overcast
9:37 AM 71.6 °F - 71.6 °F 100% 29.87 in 10.0 mi North 5.8 mph - N/A   Mostly Cloudy
9:44 AM 71.6 °F - 69.8 °F 94% 29.87 in 10.0 mi North 9.2 mph - N/A   Mostly Cloudy
9:49 AM 71.6 °F - 69.8 °F 94% 29.87 in 10.0 mi North 9.2 mph - N/A   Scattered Clouds
9:58 AM 72.7 °F - 69.3 °F 89% 29.87 in 10.0 mi North 5.8 mph - N/A   Scattered Clouds
10:23 AM 75.2 °F - 68.0 °F 78% 29.88 in 10.0 mi NNW 10.4 mph - N/A   Mostly Cloudy
10:30 AM 73.4 °F - 68.0 °F 83% 29.88 in 10.0 mi NNW 9.2 mph - N/A   Mostly Cloudy
10:33 AM 73.4 °F - 68.0 °F 83% 29.89 in 10.0 mi North 8.1 mph - N/A   Mostly Cloudy
10:38 AM 73.4 °F - 68.0 °F 83% 29.88 in 10.0 mi North 11.5 mph - N/A   Scattered Clouds
10:53 AM 75.2 °F - 68.0 °F 78% 29.89 in 10.0 mi North 9.2 mph - N/A   Mostly Cloudy
10:58 AM 75.0 °F - 67.6 °F 78% 29.89 in 10.0 mi North 10.4 mph - N/A   Scattered Clouds
11:58 AM 77.2 °F - 66.4 °F 69% 29.90 in 10.0 mi North 8.1 mph - N/A   Partly Cloudy
12:58 PM 78.3 °F - 63.1 °F 60% 29.91 in 10.0 mi North 9.2 mph - N/A   Clear
1:58 PM 79.7 °F - 62.4 °F 55% 29.90 in 10.0 mi NW 11.5 mph - N/A   Clear
2:58 PM 81.7 °F 82.2 °F 60.4 °F 48% 29.90 in 10.0 mi NNW 12.7 mph 19.6 mph N/A   Partly Cloudy
3:58 PM 81.1 °F 81.5 °F 59.0 °F 47% 29.88 in 10.0 mi NW 10.4 mph - N/A   Partly Cloudy
4:58 PM 80.1 °F 80.8 °F 59.2 °F 49% 29.88 in 10.0 mi NNW 13.8 mph - N/A   Partly Cloudy
5:58 PM 79.5 °F - 59.7 °F 51% 29.88 in 10.0 mi North 11.5 mph - N/A   Clear
6:58 PM 77.0 °F - 60.1 °F 56% 29.88 in 10.0 mi North 12.7 mph - N/A   Clear
7:58 PM 73.4 °F - 60.4 °F 64% 29.89 in 10.0 mi North 8.1 mph - N/A   Clear
8:58 PM 69.8 °F - 61.2 °F 74% 29.91 in 10.0 mi North 10.4 mph - N/A   Clear
9:58 PM 66.9 °F - 60.3 °F 79% 29.95 in 10.0 mi North 10.4 mph - N/A   Partly Cloudy
10:58 PM 64.4 °F - 59.7 °F 85% 29.97 in 10.0 mi North 8.1 mph - N/A   Scattered Clouds
11:58 PM 61.0 °F - 58.3 °F 91% 29.97 in 10.0 mi NNE 6.9 mph - N/A   Clear